Reflectivity
14 14 11 16 14 15 12 14 6 13 -20 2 4 -12 -20 -20 -20 -20 -20 -20 -20 -20 -20 -20 -20 -20 -20 -20 -20 -20 -20 -20 -20 -20 -20 -20 -20 -20 -20 -20 -20 -20 -20 -20 -20
15 15 14 6 16 12 15 9 11 13 -3 6 4 -14 -20 -17 -20 -20 -20 -20 -20 -20 -20 -20 -20 -20 -20 -20 -20 -20 -20 -20 -20 -20 -20 -20 -20 -20 -20 -20 -20 -20 -20 -20 -20
16 13 14 10 16 15 14 11 13 12 6 6 2 -20 -20 -20 -20 -20 -20 -20 -20 -20 -20 -20 -20 -20 -20 -20 -20 -20 -20 -20 -20 -20 -20 -20 -20 -20 -20 -20 -20 -20 17 -20 -16
16 16 17 12 15 16 13 11 13 12 9 9 -14 -20 -20 -20 -20 -20 -20 -20 -20 -20 -20 -20 -20 -20 -20 -20 -20 -20 -20 -20 -20 -20 -20 -20 -20 -20 -20 -20 -20 -20 -20 -20 -20
15 14 16 16 15 15 12 13 12 12 8 8 -20 -20 -20 -20 -20 -20 -20 -20 -20 -20 -20 -20 -20 -20 -20 -20 -20 -20 -20 -20 -20 -20 -20 -20 -20 -20 -20 -20 -20 -20 -20 -20 -20
16 9 14 16 15 15 11 14 12 10 8 -2 -20 -20 -20 -20 -20 -20 -20 -20 -20 -20 -20 -20 -20 -20 -20 -20 -20 -20 -20 -20 -20 -20 -20 -20 -20 -20 -20 -20 -20 -20 -20 -2 -19
16 16 6 13 14 15 11 12 10 -7 -20 -20 -20 -20 -20 -20 -20 -20 -20 -20 -20 -20 -20 -20 -20 -20 -20 -20 -20 -20 -20 -20 -20 -20 -20 -20 -20 -20 -20 -20 -20 -20 -20 8 -19
16 15 15 10 13 13 13 11 -20 -20 -20 -20 -20 -20 -20 -20 -20 -20 -20 -20 -20 -20 -20 -20 -20 -20 -20 -20 -20 -20 -20 -20 -20 -20 -20 -20 -20 -20 -20 -20 -20 -20 -20 -20 15
14 15 15 16 10 12 10 -20 -20 -20 -20 -20 -20 -20 -20 -20 -20 -20 -20 -20 -20 -20 -20 -20 -20 -20 -20 -20 -20 -20 -20 -20 -20 -20 -20 -20 -20 -20 -20 -20 -20 -20 -20 -20 -8
11 13 15 16 14 6 -12 -20 -20 -20 -20 -20 -20 -20 -20 -20 -20 -20 -20 -20 -20 -20 -20 -20 -20 -20 -20 -20 -20 -20 -20 -20 -20 -20 -20 -20 -20 -20 -20 -20 -20 -20 -20 3 38
11 12 16 15 10 -2 -20 -20 -20 -20 -20 -20 -20 -20 -20 -20 -20 -20 -20 -20 -20 -20 -20 -20 -20 -20 -20 -20 -20 -20 -20 -20 -20 -20 -20 -20 -20 -20 -20 -20 -20 -20 -20 2 27
13 14 15 15 13 7 -20 -20 -20 -20 -20 -20 -20 -20 -20 -20 -20 -20 -20 -20 -20 -20 -20 -20 -20 -20 -20 -20 -20 -20 -20 -20 -20 -20 -20 -20 -20 -20 -20 -20 -20 -20 -20 -20 -20
14 15 15 10 13 -10 -20 -20 -20 -20 -20 -20 -20 -20 -20 -20 -20 -20 -20 -20 -20 -20 -20 -20 -20 -20 -20 -20 -20 -20 -20 -20 -20 -20 -20 -20 -20 -20 -20 -20 -20 -20 -20 -20 -20
15 14 15 8 -12 -20 -20 -20 -20 -20 -20 -20 -20 -20 -20 -20 -20 -20 -20 -20 -20 -20 -20 -20 -20 -20 -20 -20 -20 -20 -20 -20 -20 -20 -20 -20 -20 -20 -20 -20 -20 -20 -20 -20 -20
12 13 11 13 -20 -20 -20 -20 -20 -20 -20 -20 -20 -20 -20 -20 -20 -20 -20 -20 -20 -20 -20 -20 -20 -20 -20 -20 -20 -20 -20 -20 -20 -20 -20 -20 -20 -20 -20 -20 -20 -20 -20 -20 -20
14 14 14 -20 -20 -20 -20 -20 -20 -20 -20 -20 -20 -20 -20 -20 -20 -20 -20 -20 -20 -20 -20 -20 -20 -20 -20 -20 -20 -20 -20 -20 -20 -20 -20 -20 -20 -20 -20 -20 -20 -20 -20 -20 -20
12 12 10 -20 -20 -20 -20 -20 -20 -20 -20 -20 -20 -20 -20 -20 -20 -20 -20 -20 -20 -20 -20 -20 -20 -20 -20 -20 -20 -20 -20 -20 -20 -20 -20 -20 -20 -20 -20 -20 -20 -20 -20 -20 -20
8 13 -5 -20 -20 -20 -20 -20 -20 -20 -20 -20 -20 -20 -20 -20 -20 -20 -20 -20 -20 -20 -20 -20 -20 -20 -20 -20 -20 -20 -20 -20 -20 -20 -20 -20 -20 -20 -20 -20 -20 -20 -20 -20 -20
-14 -20 -20 -20 -20 -20 -20 -20 -20 -20 -20 -20 -20 -20 -20 -20 -20 -20 -20 -20 -20 -20 -20 -20 -20 -20 -20 -20 -20 -20 -20 -20 -20 -20 -20 -20 -20 -20 -20 -20 -20 -20 -20 -20 -20
-20 -20 -20 -20 -20 -20 -20 -20 -20 -20 -20 -20 -20 -20 -20 -20 -20 -20 -20 -20 -20 -20 -20 -20 -20 -20 -20 -20 -20 -20 -20 -20 -20 -20 -20 -20 -20 -20 -20 -20 -20 -20 -20 -20 -20
-20 -20 -20 -20 -20 -20 -20 -20 -20 -20 -20 -20 -20 -20 -20 -20 -20 -20 -20 -20 -20 -20 -20 -20 -20 -20 -20 -20 -20 -20 -20 -20 -20 -20 -20 -20 -20 -20 -20 -20 -20 -20 -20 -20 -20
-20 -20 -20 -20 -20 -20 -20 -20 -20 -20 -20 -20 -20 -20 -20 -20 -20 -20 -20 -20 -20 -20 -20 -20 -20 -20 -20 -20 -20 -20 -20 -20 -20 -20 -20 -20 -20 -20 -20 -20 -20 -20 -20 -20 -20
-20 -20 -20 -20 -20 -20 -20 -20 -20 -20 -20 -20 -20 -20 -20 -20 -20 -20 -20 -20 -20 -20 -20 -20 -20 -20 -20 -20 -20 -20 -20 -20 -20 -20 -20 -20 -20 -20 -20 -20 -20 -1 -20 -20 -20
-20 -20 -20 -20 -20 -20 -20 -20 -20 -20 -20 -20 -20 -20 -20 -20 -20 -20 -20 -20 -20 -20 -20 -20 -20 14 -20 -20 -20 -20 -20 -20 -20 -20 -20 -20 -20 -20 -20 -20 -20 -20 -20 -20 -20
-20 -20 -20 -20 -20 -20 -20 -20 -20 -20 -20 -20 -20 -20 -20 -20 -20 -20 -20 -20 -20 -20 -20 -20 -20 -20 -20 -20 -20 -20 -20 -20 -20 -20 -20 -20 -20 -20 -20 -20 -20 -20 -20 -20 -20
-20 -20 -20 -20 -20 -20 -20 -20 -20 -20 -20 -20 -20 -20 -20 -20 -20 -20 9 -20 -20 -20 -20 -20 -20 -20 -18 -20 -19 -20 -20 -20 -20 -20 -20 -20 -20 -20 -20 -20 -20 -20 -20 -20 -20
-20 -20 -20 -20 -20 -20 -20 -20 -20 -20 -20 -20 -20 -20 -20 -20 -20 -20 -7 6 -20 -20 -20 -20 -20 -20 -20 -20 -9 -17 -20 -20 -20 -20 -20 -20 -20 -20 -20 -20 -20 -20 -20 -20 -20
Wind_Speed
12 11 10 9 8 8 8 7 8 8 9 10 11 13 14 14 15 3 7 7 7 4 2 2 2 1 3 3 2 1 1 2 2 2 3 11 10 6 3 5 3 3 3 5 20
13 12 10 9 8 8 7 7 8 8 9 9 10 12 13 12 4 9 9 12 10 7 1 3 3 4 2 2 2 1 0 2 3 3 1 6 7 12 7 8 6 4 7 16 19
14 13 11 10 8 7 7 7 7 8 8 9 10 12 11 9 4 4 4 16 14 6 2 1 2 1 0 2 3 2 3 3 3 8 5 5 6 7 8 8 12 13 16 19 19
15 14 12 10 9 8 7 8 7 7 8 8 9 11 12 3 4 2 8 9 10 9 4 3 2 1 0 1 2 3 7 5 4 4 3 5 6 5 13 2 3 13 20 20 20
15 15 13 12 10 9 7 7 7 7 7 8 9 9 3 2 8 4 7 6 11 10 8 5 2 1 3 3 3 4 5 3 7 8 7 4 2 1 2 9 7 17 20 20 17
15 15 14 13 10 9 7 7 6 7 7 7 8 8 2 4 2 4 5 2 6 6 6 5 1 2 2 3 2 3 8 10 4 5 0 5 6 2 7 3 12 17 17 16 18
15 15 14 13 11 9 6 6 6 7 7 6 6 3 2 10 4 6 5 2 5 4 4 3 2 3 5 5 4 5 6 4 5 7 2 9 5 6 4 7 11 11 12 12 13
15 15 15 13 12 9 6 5 6 7 6 5 3 2 8 2 3 8 3 3 3 2 2 3 0 2 2 6 3 3 2 4 5 10 3 5 2 5 5 9 10 7 7 10 8
14 15 15 15 12 8 5 6 7 6 4 3 2 2 7 6 4 4 6 4 6 3 2 3 1 2 0 2 2 6 4 5 5 9 2 4 2 5 3 5 9 3 4 10 11
14 15 16 15 13 7 6 6 2 2 2 4 3 4 5 2 1 2 4 4 3 6 5 2 2 1 1 3 0 3 4 5 7 6 10 12 7 3 4 6 4 0 4 4 5
14 15 15 14 12 4 3 4 5 3 3 6 2 3 3 6 4 3 4 6 3 2 6 2 5 5 2 2 2 3 4 7 4 4 4 7 7 6 3 5 5 3 2 8 10
13 15 15 12 8 2 1 4 1 3 3 9 5 7 5 4 2 3 6 6 4 8 4 4 10 2 2 2 4 5 5 4 1 3 2 3 9 6 6 4 4 5 5 10 9
13 14 15 10 4 1 3 5 3 2 2 2 5 5 5 7 3 7 8 5 4 6 5 7 1 7 3 5 7 8 8 5 3 5 8 3 4 6 3 2 3 4 3 6 9
14 14 13 8 3 2 5 1 4 4 2 4 4 4 6 5 4 4 6 6 2 9 6 3 1 7 7 6 5 7 4 6 6 8 2 4 3 2 3 2 2 5 6 9 9
14 12 9 3 2 4 2 5 4 4 3 5 4 2 2 6 8 8 2 3 8 6 6 6 4 6 3 3 5 3 5 4 4 4 5 4 2 2 2 2 4 3 8 8 9
15 13 6 3 4 6 5 4 3 4 3 5 5 7 7 4 3 6 7 4 2 4 1 6 1 4 3 5 9 4 2 5 4 2 4 2 4 4 3 2 1 4 7 9 9
17 11 7 5 1 2 3 4 4 4 0 6 5 8 10 7 5 9 14 13 9 9 9 5 12 7 5 8 3 7 6 2 3 4 1 1 3 2 3 6 4 1 9 9 9
15 3 7 5 2 5 4 3 4 1 3 2 4 9 10 7 3 7 13 14 4 6 5 9 9 9 8 11 3 7 5 3 3 2 2 2 3 4 7 4 6 6 10 11 9
5 2 4 4 9 3 3 4 2 3 2 2 5 8 6 4 4 7 14 16 15 10 4 7 6 2 7 3 4 6 5 3 7 1 4 1 3 7 8 5 3 8 12 10 7
3 3 3 3 9 3 2 2 2 3 3 1 5 4 9 12 7 8 12 13 12 13 12 2 4 2 3 4 6 3 9 5 1 3 3 3 4 4 10 10 8 9 11 11 8
2 2 6 2 4 2 5 3 4 5 4 2 0 5 4 10 8 8 11 5 22 17 12 8 3 3 3 4 6 6 5 4 4 3 3 2 1 5 15 16 11 11 9 10 10
1 4 3 3 3 1 3 3 2 3 3 6 3 3 5 8 9 10 14 8 14 16 13 11 3 5 7 0 3 3 5 9 6 5 0 3 0 1 11 14 15 9 12 10 11
3 3 3 4 3 2 1 3 4 3 3 2 3 4 2 5 6 8 6 2 14 15 18 11 5 4 3 4 3 7 5 3 6 3 7 5 2 5 10 10 12 15 12 11 11
1 4 3 1 1 1 1 2 4 4 6 4 4 3 3 5 4 4 6 2 10 9 7 17 6 8 6 3 1 6 9 10 7 5 7 8 7 14 15 16 15 14 13 12 10
3 2 3 4 3 2 1 2 4 4 4 5 3 8 6 4 3 5 4 5 4 9 5 9 10 7 2 2 3 3 9 12 8 6 8 3 9 8 15 15 16 15 14 13 11
3 2 2 2 1 2 2 2 3 5 3 2 5 3 8 4 3 5 2 1 2 5 7 3 4 4 1 2 3 4 4 7 7 4 9 5 9 1 11 14 14 15 13 12 10
3 0 3 1 1 2 1 3 2 7 6 3 6 2 5 3 3 10 8 4 3 5 4 3 5 4 6 1 8 4 6 6 4 4 4 8 4 4 12 17 17 16 12 12 10
Wind_Direction
354 349 341 331 321 314 308 308 305 306 304 312 319 322 323 327 314 180 241 233 194 195 237 145 185 225 183 178 163 130 36 113 224 218 103 148 188 185 152 148 119 99 116 122 144
356 352 344 335 323 312 307 303 303 303 304 310 316 318 324 331 295 253 245 248 215 170 277 19 354 352 166 139 167 221 53 211 258 259 57 171 186 171 169 173 184 134 96 136 148
357 353 349 339 328 317 307 299 300 301 301 308 313 315 320 320 276 248 301 229 196 167 251 322 301 283 17 177 182 172 245 173 299 252 184 175 198 193 187 196 207 184 159 159 159
356 354 351 341 331 319 308 297 296 298 300 307 310 316 316 260 191 59 322 237 194 173 212 278 298 345 194 326 189 270 255 241 254 210 205 193 190 206 212 37 325 165 153 160 167
352 351 349 341 329 316 303 292 290 293 297 305 309 321 293 205 253 343 16 122 145 166 203 205 265 264 346 322 291 217 288 291 240 268 229 221 78 69 351 331 120 144 155 164 169
350 350 347 344 332 317 300 288 284 285 295 301 311 319 237 237 129 93 24 137 156 176 171 190 243 272 271 275 262 279 286 285 310 352 202 123 51 135 14 45 127 149 153 167 172
348 347 346 344 338 324 307 286 279 281 294 297 306 291 228 242 134 314 310 195 181 190 163 186 254 295 338 315 351 307 311 348 42 2 29 141 63 45 42 119 127 141 154 168 181
347 345 345 345 340 331 305 284 274 283 285 281 282 243 253 228 302 280 209 173 194 196 173 172 225 290 266 311 330 10 27 6 39 356 39 237 17 39 68 113 115 113 159 180 172
346 344 343 343 340 324 303 290 283 275 255 257 208 259 262 315 236 232 197 173 155 176 229 127 51 19 289 350 60 26 347 346 349 33 319 26 116 50 91 122 129 73 212 199 178
345 342 341 340 337 321 299 281 287 280 199 196 252 264 246 135 283 159 185 172 160 134 127 162 82 232 81 349 241 3 336 339 321 6 51 81 86 111 112 117 135 63 303 189 162
341 337 337 339 335 321 330 146 161 154 222 211 185 271 321 316 252 193 167 154 121 142 177 71 218 231 51 73 68 290 286 318 313 44 80 70 70 28 29 111 127 104 117 142 180
336 335 337 343 332 307 250 231 60 7 252 225 250 276 258 292 106 138 170 165 177 176 142 176 242 222 155 70 283 255 301 293 234 360 81 71 60 48 26 55 87 122 151 169 201
333 336 338 343 338 223 229 240 104 315 259 184 194 231 237 186 183 177 181 140 150 155 145 198 31 67 27 311 285 278 268 240 260 111 78 336 83 26 21 335 123 133 143 176 200
332 334 334 347 267 153 234 183 274 243 322 160 202 239 164 194 188 192 183 163 127 185 146 203 192 245 269 275 252 293 305 255 182 192 153 336 125 332 338 328 3 189 186 191 197
327 317 310 313 333 212 53 335 130 208 192 138 152 124 140 200 131 181 182 112 172 145 193 186 201 163 228 240 180 301 30 117 183 136 170 41 191 193 295 310 114 157 186 188 189
317 306 285 204 221 254 312 302 205 219 177 146 131 160 166 198 132 128 170 117 120 142 107 228 166 263 228 194 220 239 174 94 101 139 221 54 293 199 227 257 109 154 175 171 178
312 288 208 176 181 351 279 183 185 232 50 156 158 167 177 165 131 173 178 184 190 190 210 221 248 249 210 262 167 187 187 179 193 211 359 131 243 24 206 255 265 169 165 167 172
319 305 203 219 300 325 194 193 208 169 236 113 132 152 189 155 164 155 162 181 171 167 180 210 214 194 171 223 213 183 224 207 236 246 45 164 227 129 189 284 285 234 160 155 169
326 126 133 255 223 279 203 201 243 200 327 116 128 158 181 186 171 165 192 196 191 198 198 172 234 210 217 182 221 136 205 69 112 94 252 59 214 249 223 247 243 173 144 145 152
176 171 50 24 164 232 206 246 253 237 317 203 205 186 176 177 168 190 180 194 197 201 218 151 247 180 101 149 64 276 132 172 167 216 255 200 257 195 180 193 192 181 143 136 131
194 108 18 141 185 200 207 237 269 254 250 315 166 167 173 173 184 183 193 199 200 189 197 179 244 120 261 200 183 149 183 76 108 313 273 282 212 195 183 181 189 161 145 136 128
302 91 123 221 194 0 199 220 293 276 257 275 244 239 162 155 190 206 202 235 183 158 181 195 192 253 264 165 304 242 225 186 226 188 118 320 297 85 153 161 166 159 136 126 117
73 101 129 285 206 155 264 267 263 255 246 235 245 229 176 185 205 207 197 211 159 167 169 171 214 241 248 155 165 203 179 145 120 134 193 222 201 127 144 148 155 152 140 129 125
147 130 140 169 349 86 35 271 265 236 245 247 281 182 152 211 198 205 223 128 185 195 155 165 163 206 217 68 47 175 177 173 204 188 162 226 248 159 176 166 166 151 142 139 137
10 76 353 174 189 214 241 296 281 287 215 199 263 228 193 185 201 217 183 136 93 143 126 182 203 200 270 278 219 195 182 177 195 156 219 240 230 257 189 169 162 154 145 146 148
13 359 358 82 358 190 158 212 286 321 260 176 241 288 205 192 232 157 103 226 158 155 156 172 165 158 133 187 206 154 122 198 227 214 252 254 274 109 147 153 158 157 156 153 153
17 294 289 64 99 207 134 311 264 336 229 288 293 206 135 98 159 97 98 68 52 154 111 112 142 176 171 222 162 194 203 184 190 225 254 224 280 145 166 174 166 159 159 157 154